Time,TemperatureF,DewpointF,PressureIn,WindDirection,WindDirectionDegrees,WindSpeedMPH,WindSpeedGustMPH,Humidity,HourlyPrecipIn,Conditions,Clouds,dailyrainin,SolarRadiationWatts/m^2,SoftwareType,DateUTC
2013-02-17 00:01:00,30.0,24.0,29.90,NE,52,7.0,12.0,77,-99.99,,,-99.99,-0.100000,,2013-02-17 07:01:00,
2013-02-17 00:11:00,29.0,24.0,29.90,NE,36,7.0,11.0,79,-99.99,,,-99.99,-0.100000,,2013-02-17 07:11:00,
2013-02-17 00:21:00,29.0,24.0,29.89,NE,46,5.0,7.0,79,-99.99,,,-99.99,-0.100000,,2013-02-17 07:21:00,
2013-02-17 00:31:00,29.0,24.0,29.88,NNE,14,4.0,6.0,79,-99.99,,,-99.99,-0.100000,,2013-02-17 07:31:00,
2013-02-17 00:41:00,31.0,23.0,29.87,SW,217,5.0,10.0,72,-99.99,,,-99.99,-0.100000,,2013-02-17 07:41:00,
2013-02-17 00:51:00,30.0,23.0,29.87,North,350,7.0,10.0,75,-99.99,,,-99.99,-0.100000,,2013-02-17 07:51:00,
2013-02-17 01:01:00,33.0,20.0,29.86,South,183,6.0,11.0,60,-99.99,,,-99.99,-0.100000,,2013-02-17 08:01:00,
2013-02-17 01:11:00,38.0,18.0,29.85,WSW,239,8.0,15.0,43,-99.99,,,-99.99,-0.100000,,2013-02-17 08:11:00,
2013-02-17 01:21:00,38.0,18.0,29.85,WSW,239,6.0,11.0,42,-99.99,,,-99.99,-0.100000,,2013-02-17 08:21:00,
2013-02-17 01:31:00,39.0,17.0,29.84,ENE,78,8.0,20.0,40,-99.99,,,-99.99,-0.100000,,2013-02-17 08:31:00,
2013-02-17 01:41:00,40.0,17.0,29.84,South,172,7.0,14.0,39,-99.99,,,-99.99,0.000000,,2013-02-17 08:41:00,
2013-02-17 01:52:00,36.0,19.0,29.83,ESE,123,4.0,11.0,50,-99.99,,,-99.99,0.000000,,2013-02-17 08:52:00,
2013-02-17 02:01:00,38.0,17.0,29.82,SSE,166,14.0,24.0,43,-99.99,,,-99.99,-0.100000,,2013-02-17 09:01:00,
2013-02-17 02:11:00,39.0,17.0,29.81,SSE,164,20.0,30.0,39,-99.99,,,-99.99,-0.100000,,2013-02-17 09:11:00,
2013-02-17 02:21:00,40.0,17.0,29.81,SSE,163,20.0,25.0,39,-99.99,,,-99.99,-0.100000,,2013-02-17 09:21:00,
2013-02-17 02:31:00,40.0,17.0,29.81,South,169,20.0,24.0,38,-99.99,,,-99.99,-0.100000,,2013-02-17 09:31:00,
2013-02-17 02:41:00,40.0,17.0,29.81,South,170,22.0,28.0,38,-99.99,,,-99.99,-0.100000,,2013-02-17 09:41:00,
2013-02-17 02:51:00,40.0,17.0,29.81,South,174,20.0,26.0,39,-99.99,,,-99.99,-0.100000,,2013-02-17 09:51:00,
2013-02-17 03:01:00,39.0,17.0,29.81,South,175,21.0,26.0,40,-99.99,,,-99.99,0.000000,,2013-02-17 10:01:00,
2013-02-17 03:11:00,42.0,17.0,29.81,SSW,194,22.0,29.0,37,-99.99,,,-99.99,-0.100000,,2013-02-17 10:11:00,
2013-02-17 03:21:00,41.0,18.0,29.82,SSW,204,21.0,29.0,39,-99.99,,,-99.99,0.000000,,2013-02-17 10:21:00,
2013-02-17 03:31:00,41.0,19.0,29.82,SSW,208,24.0,29.0,41,-99.99,,,-99.99,-0.100000,,2013-02-17 10:31:00,
2013-02-17 03:41:00,40.0,21.0,29.83,SW,221,23.0,35.0,46,-99.99,,,-99.99,-0.100000,,2013-02-17 10:41:00,
2013-02-17 03:51:00,40.0,23.0,29.83,SW,221,33.0,41.0,51,-99.99,,,-99.99,0.000000,,2013-02-17 10:51:00,
2013-02-17 04:01:00,38.0,25.0,29.85,SW,227,32.0,39.0,61,-99.99,,,-99.99,-0.100000,,2013-02-17 11:01:00,
2013-02-17 04:11:00,36.0,27.0,29.85,SW,222,28.0,33.0,67,-99.99,,,-99.99,-0.100000,,2013-02-17 11:11:00,
2013-02-17 04:21:00,35.0,28.0,29.85,SSW,210,25.0,31.0,72,-99.99,,,-99.99,-0.100000,,2013-02-17 11:21:00,
2013-02-17 04:32:00,35.0,28.0,29.85,SSW,212,24.0,29.0,74,-99.99,,,-99.99,0.000000,,2013-02-17 11:32:00,
2013-02-17 04:41:00,35.0,28.0,29.85,SW,217,21.0,30.0,75,-99.99,,,-99.99,-0.100000,,2013-02-17 11:41:00,
2013-02-17 04:52:00,35.0,28.0,29.84,SW,219,21.0,27.0,74,-99.99,,,-99.99,-0.100000,,2013-02-17 11:52:00,
2013-02-17 05:02:00,35.0,28.0,29.84,SSW,213,19.0,25.0,75,-99.99,,,-99.99,-0.100000,,2013-02-17 12:02:00,
2013-02-17 05:11:00,35.0,28.0,29.82,SSW,204,22.0,27.0,75,-99.99,,,-99.99,-0.100000,,2013-02-17 12:11:00,
2013-02-17 05:22:00,35.0,28.0,29.82,SSW,213,21.0,25.0,74,-99.99,,,-99.99,0.000000,,2013-02-17 12:22:00,
2013-02-17 05:31:00,35.0,27.0,29.82,SW,217,23.0,28.0,72,-99.99,,,-99.99,-0.100000,,2013-02-17 12:31:00,
2013-02-17 05:42:00,35.0,26.0,29.83,SW,219,22.0,29.0,68,-99.99,,,-99.99,-0.200000,,2013-02-17 12:42:00,
2013-02-17 05:52:00,35.0,25.0,29.83,SW,226,26.0,32.0,67,-99.99,,,-99.99,-0.100000,,2013-02-17 12:52:00,
2013-02-17 06:01:00,35.0,25.0,29.84,SW,222,22.0,30.0,66,-99.99,,,-99.99,0.000000,,2013-02-17 13:01:00,
2013-02-17 06:11:00,35.0,25.0,29.84,SW,231,23.0,29.0,67,-99.99,,,-99.99,-0.100000,,2013-02-17 13:11:00,
2013-02-17 06:21:00,34.0,26.0,29.85,SW,225,20.0,27.0,70,-99.99,,,-99.99,-0.100000,,2013-02-17 13:21:00,
2013-02-17 06:32:00,33.0,25.0,29.84,SW,218,23.0,28.0,71,-99.99,,,-99.99,-0.100000,,2013-02-17 13:32:00,
2013-02-17 06:41:00,33.0,25.0,29.84,SW,217,24.0,28.0,71,-99.99,,,-99.99,-0.100000,,2013-02-17 13:41:00,
2013-02-17 06:51:00,33.0,25.0,29.83,SW,218,23.0,29.0,70,-99.99,,,-99.99,-0.100000,,2013-02-17 13:51:00,
2013-02-17 07:01:00,33.0,24.0,29.83,SW,224,21.0,28.0,69,-99.99,,,-99.99,-0.100000,,2013-02-17 14:01:00,
2013-02-17 07:11:00,32.0,22.0,29.84,SW,235,19.0,24.0,66,-99.99,,,-99.99,-0.100000,,2013-02-17 14:11:00,
2013-02-17 07:21:00,32.0,22.0,29.85,SW,236,18.0,22.0,66,-99.99,,,-99.99,0.000000,,2013-02-17 14:21:00,
2013-02-17 07:32:00,31.0,22.0,29.84,SW,234,19.0,25.0,67,-99.99,,,-99.99,0.500000,,2013-02-17 14:32:00,
2013-02-17 07:42:00,31.0,22.0,29.86,WSW,247,17.0,24.0,68,-99.99,,,-99.99,2.200000,,2013-02-17 14:42:00,
2013-02-17 07:52:00,31.0,22.0,29.87,WSW,255,15.0,21.0,70,-99.99,,,-99.99,5.300000,,2013-02-17 14:52:00,
2013-02-17 08:01:00,31.0,22.0,29.86,WSW,247,21.0,26.0,70,-99.99,,,-99.99,8.600000,,2013-02-17 15:01:00,
2013-02-17 08:11:00,31.0,23.0,29.86,WSW,248,22.0,28.0,71,-99.99,,,-99.99,12.500000,,2013-02-17 15:11:00,
2013-02-17 08:21:00,30.0,23.0,29.87,WSW,246,18.0,22.0,73,-99.99,,,-99.99,15.100000,,2013-02-17 15:21:00,
2013-02-17 08:31:00,30.0,23.0,29.87,WSW,241,15.0,22.0,75,-99.99,,,-99.99,20.299999,,2013-02-17 15:31:00,
2013-02-17 08:41:00,30.0,24.0,29.88,WSW,243,13.0,20.0,76,-99.99,,,-99.99,31.100000,,2013-02-17 15:41:00,
2013-02-17 08:51:00,30.0,24.0,29.88,WSW,249,14.0,18.0,75,-99.99,,,-99.99,31.100000,,2013-02-17 15:51:00,
2013-02-17 09:01:00,30.0,24.0,29.89,WSW,255,14.0,18.0,75,-99.99,,,-99.99,14.900000,,2013-02-17 16:01:00,
2013-02-17 09:11:00,30.0,23.0,29.89,WSW,255,15.0,20.0,74,-99.99,,,-99.99,24.900000,,2013-02-17 16:11:00,
2013-02-17 09:21:00,31.0,23.0,29.89,WSW,251,15.0,21.0,74,-99.99,,,-99.99,59.599998,,2013-02-17 16:21:00,
2013-02-17 09:31:00,31.0,24.0,29.90,WSW,253,15.0,22.0,74,-99.99,,,-99.99,42.400002,,2013-02-17 16:31:00,
2013-02-17 09:41:00,30.0,23.0,29.90,WSW,242,18.0,22.0,75,-99.99,,,-99.99,67.099998,,2013-02-17 16:41:00,
2013-02-17 09:51:00,31.0,24.0,29.90,WSW,245,16.0,24.0,74,-99.99,,,-99.99,108.800003,,2013-02-17 16:51:00,
2013-02-17 10:02:00,31.0,24.0,29.90,WSW,248,20.0,24.0,74,-99.99,,,-99.99,125.599998,,2013-02-17 17:02:00,
2013-02-17 10:11:00,31.0,24.0,29.89,WSW,241,18.0,23.0,73,-99.99,,,-99.99,144.600006,,2013-02-17 17:11:00,
2013-02-17 10:21:00,31.0,23.0,29.90,SW,231,21.0,26.0,72,-99.99,,,-99.99,142.399994,,2013-02-17 17:21:00,
2013-02-17 10:31:00,31.0,24.0,29.90,SW,227,20.0,24.0,72,-99.99,,,-99.99,184.300003,,2013-02-17 17:31:00,
2013-02-17 10:41:00,31.0,23.0,29.90,SW,233,19.0,23.0,71,-99.99,,,-99.99,247.000000,,2013-02-17 17:41:00,
2013-02-17 10:52:00,31.0,23.0,29.90,SW,236,20.0,24.0,70,-99.99,,,-99.99,163.399994,,2013-02-17 17:52:00,
2013-02-17 11:01:00,31.0,23.0,29.90,WSW,240,19.0,22.0,71,-99.99,,,-99.99,133.199997,,2013-02-17 18:01:00,
2013-02-17 11:11:00,31.0,23.0,29.90,SW,231,17.0,21.0,71,-99.99,,,-99.99,106.500000,,2013-02-17 18:11:00,
2013-02-17 11:21:00,32.0,23.0,29.90,SW,232,18.0,22.0,71,-99.99,,,-99.99,212.100006,,2013-02-17 18:21:00,
2013-02-17 11:33:00,32.0,23.0,29.90,WSW,245,18.0,22.0,68,-99.99,,,-99.99,255.100006,,2013-02-17 18:33:00,
2013-02-17 11:41:00,32.0,23.0,29.90,SW,233,18.0,23.0,67,-99.99,,,-99.99,156.300003,,2013-02-17 18:41:00,
2013-02-17 11:52:00,32.0,22.0,29.90,SW,232,18.0,21.0,66,-99.99,,,-99.99,350.200012,,2013-02-17 18:52:00,
2013-02-17 12:01:00,33.0,22.0,29.90,SW,234,18.0,22.0,63,-99.99,,,-99.99,456.600006,,2013-02-17 19:01:00,
2013-02-17 12:11:00,35.0,23.0,29.89,WSW,244,17.0,21.0,61,-99.99,,,-99.99,611.599976,,2013-02-17 19:11:00,
2013-02-17 12:21:00,35.0,23.0,29.90,WSW,238,18.0,22.0,59,-99.99,,,-99.99,703.700012,,2013-02-17 19:21:00,
2013-02-17 12:31:00,35.0,22.0,29.90,WSW,243,16.0,19.0,59,-99.99,,,-99.99,378.500000,,2013-02-17 19:31:00,
2013-02-17 12:41:00,35.0,23.0,29.89,WSW,250,15.0,18.0,61,-99.99,,,-99.99,546.000000,,2013-02-17 19:41:00,
2013-02-17 12:51:00,35.0,22.0,29.90,WSW,242,14.0,19.0,57,-99.99,,,-99.99,388.399994,,2013-02-17 19:51:00,
2013-02-17 13:01:00,34.0,21.0,29.89,SW,236,14.0,18.0,58,-99.99,,,-99.99,203.500000,,2013-02-17 20:01:00,
2013-02-17 13:11:00,34.0,20.0,29.89,SW,233,12.0,16.0,56,-99.99,,,-99.99,189.399994,,2013-02-17 20:11:00,
2013-02-17 13:21:00,34.0,20.0,29.89,WSW,245,9.0,11.0,55,-99.99,,,-99.99,131.699997,,2013-02-17 20:21:00,
2013-02-17 13:31:00,34.0,21.0,29.89,WSW,237,10.0,14.0,57,-99.99,,,-99.99,144.199997,,2013-02-17 20:31:00,
2013-02-17 13:42:00,35.0,22.0,29.88,SSW,208,11.0,13.0,59,-99.99,,,-99.99,631.200012,,2013-02-17 20:42:00,
2013-02-17 13:52:00,35.0,22.0,29.88,WSW,239,13.0,17.0,56,-99.99,,,-99.99,446.600006,,2013-02-17 20:52:00,
2013-02-17 14:01:00,37.0,22.0,29.88,SW,230,16.0,20.0,54,-99.99,,,-99.99,695.700012,,2013-02-17 21:01:00,
2013-02-17 14:11:00,37.0,21.0,29.88,SW,234,15.0,18.0,53,-99.99,,,-99.99,221.199997,,2013-02-17 21:11:00,
2013-02-17 14:21:00,36.0,20.0,29.88,WSW,243,14.0,18.0,51,-99.99,,,-99.99,137.000000,,2013-02-17 21:21:00,
2013-02-17 14:31:00,36.0,19.0,29.88,West,277,12.0,16.0,49,-99.99,,,-99.99,145.399994,,2013-02-17 21:31:00,
2013-02-17 14:41:00,36.0,16.0,29.88,NNW,327,12.0,15.0,44,-99.99,,,-99.99,145.899994,,2013-02-17 21:41:00,
2013-02-17 14:52:00,36.0,19.0,29.89,NNW,330,8.0,11.0,49,-99.99,,,-99.99,119.300003,,2013-02-17 21:52:00,
2013-02-17 15:01:00,35.0,18.0,29.89,NW,311,10.0,14.0,49,-99.99,,,-99.99,91.800003,,2013-02-17 22:01:00,
2013-02-17 15:11:00,35.0,19.0,29.89,WNW,286,8.0,9.0,52,-99.99,,,-99.99,82.400002,,2013-02-17 22:11:00,
2013-02-17 15:21:00,34.0,18.0,29.89,West,268,6.0,10.0,51,-99.99,,,-99.99,63.900002,,2013-02-17 22:21:00,
2013-02-17 15:32:00,34.0,19.0,29.90,West,279,11.0,16.0,54,-99.99,,,-99.99,30.100000,,2013-02-17 22:32:00,
2013-02-17 15:41:00,32.0,21.0,29.90,WSW,252,11.0,14.0,64,-99.99,,,-99.99,49.900002,,2013-02-17 22:41:00,
2013-02-17 15:52:00,31.0,22.0,29.90,WSW,243,9.0,11.0,68,-99.99,,,-99.99,320.899994,,2013-02-17 22:52:00,
2013-02-17 16:01:00,33.0,23.0,29.90,SSW,209,7.0,9.0,66,-99.99,,,-99.99,385.899994,,2013-02-17 23:01:00,
2013-02-17 16:11:00,34.0,22.0,29.90,SSW,195,6.0,8.0,62,-99.99,,,-99.99,349.600006,,2013-02-17 23:11:00,
2013-02-17 16:21:00,35.0,21.0,29.90,SSW,200,6.0,8.0,58,-99.99,,,-99.99,320.100006,,2013-02-17 23:21:00,
2013-02-17 16:31:00,35.0,19.0,29.90,SW,229,5.0,6.0,51,-99.99,,,-99.99,291.799988,,2013-02-17 23:31:00,
2013-02-17 16:41:00,36.0,18.0,29.90,WSW,244,4.0,5.0,46,-99.99,,,-99.99,262.799988,,2013-02-17 23:41:00,
2013-02-17 16:52:00,36.0,16.0,29.90,WSW,238,5.0,6.0,43,-99.99,,,-99.99,229.399994,,2013-02-17 23:52:00,
2013-02-17 17:01:00,37.0,16.0,29.91,WSW,249,5.0,7.0,43,-99.99,,,-99.99,204.899994,,2013-02-18 00:01:00,
2013-02-17 17:11:00,37.0,17.0,29.91,SW,235,5.0,6.0,44,-99.99,,,-99.99,176.899994,,2013-02-18 00:11:00,
2013-02-17 17:22:00,37.0,18.0,29.92,SW,222,5.0,7.0,46,-99.99,,,-99.99,148.199997,,2013-02-18 00:22:00,
2013-02-17 17:31:00,37.0,17.0,29.92,SW,222,3.0,4.0,44,-99.99,,,-99.99,121.300003,,2013-02-18 00:31:00,
2013-02-17 17:41:00,36.0,16.0,29.92,SSW,195,1.0,2.0,43,-99.99,,,-99.99,86.400002,,2013-02-18 00:41:00,
2013-02-17 17:52:00,36.0,16.0,29.92,SW,221,2.0,2.0,43,-99.99,,,-99.99,52.000000,,2013-02-18 00:52:00,
2013-02-17 18:01:00,35.0,18.0,29.93,South,180,5.0,6.0,50,-99.99,,,-99.99,23.600000,,2013-02-18 01:01:00,
2013-02-17 18:11:00,33.0,18.0,29.93,South,189,5.0,5.0,53,-99.99,,,-99.99,7.300000,,2013-02-18 01:11:00,
2013-02-17 18:21:00,32.0,19.0,29.93,South,176,3.0,4.0,58,-99.99,,,-99.99,4.000000,,2013-02-18 01:21:00,
2013-02-17 18:31:00,32.0,18.0,29.93,South,190,3.0,3.0,55,-99.99,,,-99.99,1.700000,,2013-02-18 01:31:00,
2013-02-17 18:41:00,32.0,19.0,29.94,West,262,2.0,3.0,57,-99.99,,,-99.99,0.200000,,2013-02-18 01:41:00,
2013-02-17 18:51:00,29.0,19.0,29.94,SSW,208,4.0,5.0,65,-99.99,,,-99.99,0.000000,,2013-02-18 01:51:00,
2013-02-17 19:01:00,28.0,19.0,29.94,South,188,4.0,5.0,68,-99.99,,,-99.99,-0.100000,,2013-02-18 02:01:00,
2013-02-17 19:11:00,28.0,19.0,29.95,South,175,4.0,4.0,67,-99.99,,,-99.99,-0.100000,,2013-02-18 02:11:00,
2013-02-17 19:21:00,29.0,17.0,29.95,South,176,4.0,4.0,60,-99.99,,,-99.99,-0.100000,,2013-02-18 02:21:00,
2013-02-17 19:31:00,27.0,18.0,29.95,South,182,5.0,6.0,70,-99.99,,,-99.99,0.000000,,2013-02-18 02:31:00,
2013-02-17 19:41:00,26.0,19.0,29.95,South,181,6.0,7.0,72,-99.99,,,-99.99,-0.100000,,2013-02-18 02:41:00,
2013-02-17 19:51:00,26.0,19.0,29.96,South,189,8.0,11.0,72,-99.99,,,-99.99,-0.100000,,2013-02-18 02:51:00,
2013-02-17 20:01:00,27.0,19.0,29.96,South,191,9.0,10.0,69,-99.99,,,-99.99,-0.100000,,2013-02-18 03:01:00,
2013-02-17 20:11:00,28.0,18.0,29.96,South,184,9.0,11.0,66,-99.99,,,-99.99,0.000000,,2013-02-18 03:11:00,
2013-02-17 20:21:00,30.0,18.0,29.96,South,177,11.0,13.0,61,-99.99,,,-99.99,-0.100000,,2013-02-18 03:21:00,
2013-02-17 20:31:00,29.0,18.0,29.96,South,181,11.0,13.0,62,-99.99,,,-99.99,-0.200000,,2013-02-18 03:31:00,
2013-02-17 20:41:00,30.0,21.0,29.96,South,190,13.0,16.0,67,-99.99,,,-99.99,0.000000,,2013-02-18 03:41:00,
2013-02-17 20:51:00,31.0,21.0,29.97,SSW,192,15.0,18.0,67,-99.99,,,-99.99,-0.100000,,2013-02-18 03:51:00,
2013-02-17 21:01:00,31.0,22.0,29.97,SSW,196,16.0,18.0,69,-99.99,,,-99.99,-0.100000,,2013-02-18 04:01:00,
2013-02-17 21:11:00,30.0,22.0,29.97,SSW,198,15.0,18.0,70,-99.99,,,-99.99,-0.100000,,2013-02-18 04:11:00,
2013-02-17 21:21:00,30.0,22.0,29.97,SSW,203,15.0,19.0,70,-99.99,,,-99.99,0.000000,,2013-02-18 04:21:00,
2013-02-17 21:32:00,30.0,22.0,29.98,SSW,205,15.0,20.0,70,-99.99,,,-99.99,0.000000,,2013-02-18 04:32:00,
2013-02-17 21:41:00,30.0,22.0,29.98,SSW,206,14.0,16.0,69,-99.99,,,-99.99,0.000000,,2013-02-18 04:41:00,
2013-02-17 21:51:00,30.0,21.0,29.98,SSW,203,14.0,17.0,69,-99.99,,,-99.99,0.000000,,2013-02-18 04:51:00,
2013-02-17 22:01:00,30.0,21.0,29.99,SSW,204,13.0,17.0,69,-99.99,,,-99.99,0.000000,,2013-02-18 05:01:00,
2013-02-17 22:11:00,30.0,21.0,29.99,SSW,202,14.0,17.0,69,-99.99,,,-99.99,-0.100000,,2013-02-18 05:11:00,
2013-02-17 22:21:00,30.0,21.0,29.99,SSW,204,13.0,16.0,70,-99.99,,,-99.99,-0.100000,,2013-02-18 05:21:00,
2013-02-17 22:31:00,29.0,21.0,29.99,SSW,204,14.0,17.0,70,-99.99,,,-99.99,-0.100000,,2013-02-18 05:31:00,
2013-02-17 22:41:00,29.0,21.0,30.00,SSW,207,13.0,17.0,70,-99.99,,,-99.99,0.000000,,2013-02-18 05:41:00,
2013-02-17 22:51:00,29.0,21.0,30.00,SSW,205,14.0,16.0,71,-99.99,,,-99.99,-0.100000,,2013-02-18 05:51:00,
2013-02-17 23:02:00,29.0,21.0,30.01,SSW,208,13.0,15.0,72,-99.99,,,-99.99,-0.100000,,2013-02-18 06:02:00,
2013-02-17 23:11:00,29.0,21.0,30.01,SSW,208,13.0,15.0,72,-99.99,,,-99.99,0.000000,,2013-02-18 06:11:00,
2013-02-17 23:21:00,29.0,21.0,30.01,SSW,211,13.0,17.0,70,-99.99,,,-99.99,-0.100000,,2013-02-18 06:21:00,
2013-02-17 23:31:00,29.0,21.0,30.01,SW,215,13.0,15.0,70,-99.99,,,-99.99,-0.100000,,2013-02-18 06:31:00,
2013-02-17 23:41:00,29.0,21.0,30.01,SW,218,14.0,16.0,69,-99.99,,,-99.99,0.000000,,2013-02-18 06:41:00,
2013-02-17 23:51:00,29.0,21.0,30.01,SW,220,11.0,14.0,70,-99.99,,,-99.99,0.000000,,2013-02-18 06:51:00,